Regional Weather Roundup
Issued by NWS

Home | Current Version | Previous Version | Text Only | Print | Product List | Glossary Off
Versions: 1 2 3 4 5 6 7 8 9 10 11 12 13 14 15 16 17 18 19 20 21 22 23 24 25 26 27

000
ASUS45 KCYS 170210
RWRWY

WYOMING REGIONAL WEATHER ROUNDUP
NATIONAL WEATHER SERVICE CHEYENNE WY
800 PM MDT WED APR 16 2014

NOTE:  "FAIR" INDICATES FEW OR NO CLOUDS BELOW 12,000 FEET
WITH NO SIGNIFICANT WEATHER AND/OR OBSTRUCTIONS TO VISIBILITY.

WYZ001-170300-
YELLOWSTONE NATIONAL PARK

CITY           SKY/WX    TMP DP  RH WIND       PRES   REMARKS
LK YELLOWSTONE   N/A     31  15  52 VRB5      30.02R WCI  26
W YELLOWSTONE  NOT AVBL

$$
WYZ002>013-054>058-071-098>099-170300-
NORTHERN WYOMING

CITY           SKY/WX    TMP DP  RH WIND       PRES   REMARKS
JACKSON        CLEAR     39  14  35 SW6       30.00S WCI  35
CODY           CLOUDY    39  27  60 N8        29.99S WCI  34
GREYBULL       CLOUDY    47  30  51 NW6       29.97R
WORLAND        PTCLDY    42  31  64 E6        29.97S
SHERIDAN       MOCLDY    37  32  82 S8        30.02S WCI  31
BUFFALO        CLOUDY    34  30  85 SW6       30.04S WCI  29
GILLETTE       CLOUDY    37  33  85 SW9       30.05R WCI  30
HULETT         MOCLDY   N/A N/A N/A MISG      30.05
NEWCASTLE      FAIR      41  28  60 CALM      30.04

$$
WYZ014>020-022>026-101>103-170300-
CENTRAL WYOMING

CITY           SKY/WX    TMP DP  RH WIND       PRES   REMARKS
BIG PINEY      CLEAR     39  10  30 N12       30.01R WCI  32
PINEDALE       CLEAR     36  18  48 NW6       30.01S WCI  31
DUBOIS         FAIR      34  14  44 N8        29.98R WCI  27
LANDER         CLOUDY    45  20  36 W6        29.94R
RIVERTON       PTCLDY    44  20  38 NE15      29.96R
CASPER         PTCLDY    36  30  79 NE13      30.01R WCI  27
DOUGLAS        MOCLDY    36  32  85 NE10      30.04R WCI  28

$$
WYZ021-027>030-104>119-170300-
SOUTHERN WYOMING

CITY           SKY/WX    TMP DP  RH WIND       PRES   REMARKS
EVANSTON       MOCLDY    42  12  29 W10       30.01S
KEMMERER       CLEAR     37  12  35 W9        30.02R WCI  31
FORT BRIDGER   FAIR      44   8  22 NW10      30.02R
ROCK SPRINGS   PTCLDY    43   6  21 NW10      29.97R
DIXON          MOCLDY    38  22  52 N5        29.99R WCI  35
RAWLINS        PTCLDY    41   6  23 NW8       29.96R
SARATOGA       FAIR      34  12  40 W7        29.97S WCI  28
LARAMIE        PTCLDY    34  23  64 E10       29.98R WCI  26
CHEYENNE       PTCLDY    37  27  67 CALM      30.03R
TORRINGTON     LGT RAIN  45  31  58 NE7       30.02R
PINE BLUFFS    FAIR      37  27  65 E6        30.04R WCI  33

$$



USA.gov is the U.S. government's official web portal to all federal, state and local government web resources and services.